Regional Weather Roundup
Issued by NWS

Home | Current Version | Previous Version | Graphics & Text | Print | Product List | Glossary On
Versions: 1 2 3 4 5 6 7 8 9 10 11 12 13 14 15 16 17 18 19 20 21 22 23 24 25 26 27 28 29 30 31 32 33 34 35 36 37 38 39 40 41 42 43 44 45 46 47 48 49 50
865
ASUS45 KBOU 231107
RWRCO

WEATHER ROUNDUP FOR COLORADO
NATIONAL WEATHER SERVICE DENVER/BOULDER CO
500 AM MDT TUE MAY 23 2017

NOTE: "FAIR" INDICATES FEW OR NO CLOUDS BELOW 12000 FEET WITH NO
SIGNIFICANT WEATHER AND/OR OBSTRUCTIONS TO VISIBILITY.

COZ001>005-013-030-031-231200-
...NORTHWEST COLORADO...

CITY           SKY/WX    TMP DP  RH WIND       PRES   REMARKS
CRAIG          CLOUDY    33  30  88 CALM      30.33F
HAYDEN         CLOUDY    34  28  80 CALM      30.32F
MEEKER         FAIR      32  30  92 CALM      30.33R
RABBIT EARS PA FOG       25  23  93 W8        30.33S VSB 1/2 WCI  16
STEAMBOAT SPGS CLOUDY    33  33  99 CALM      30.32S
WALDEN           N/A     30  27  86 CALM      30.33S
$$

COZ006>008-011-231200-
...WEST CENTRAL VALLEYS...

CITY           SKY/WX    TMP DP  RH WIND       PRES   REMARKS
GRAND JUNCTION MOCLDY    50  30  46 CALM      30.25S
MONTROSE       CLOUDY    47  37  68 NW13      30.27R
EAGLE          MOCLDY    35  33  92 E5        30.35S WCI  31
RIFLE          FAIR      38  34  85 E5        30.29S
DELTA          MOCLDY    49  40  72 N3        30.25R
NUCLA          FAIR      46  32  57 NE5       30.26S
$$

COZ017>023-064>068-231200-
...SOUTHWEST COLORADO...

CITY           SKY/WX    TMP DP  RH WIND       PRES   REMARKS
DURANGO        FAIR      50  29  44 NW12      30.15F
CORTEZ         FAIR      43  35  73 CALM      30.18S
PAGOSA SPRINGS FAIR      45  28  50 NW5       30.20F
TELLURIDE      CLOUDY    37  37 100 CALM      30.32S FOG
WOLF CREEK PAS FAIR      27  16  63 NW15G21   30.35F HAZE    WCI  15
$$

COZ009-010-012-014-032>034-037-058>063-231200-
...CENTRAL COLORADO...

CITY           SKY/WX    TMP DP  RH WIND       PRES   REMARKS
ASPEN          CLOUDY    33  32  96 CALM      30.31R
BUENA VISTA    FAIR      35  27  74 NE9G16    30.28S WCI  27
COPPER MTN     SNOW      25  19  80 MISG      30.34R VSB 1/4
BERTHOUD PASS  CLOUDY    18   5  57 MISG      30.30F
COTTONWOOD PAS FAIR      32  27  80 S7        30.30S WCI  26
GUNNISON       FAIR      35  31  85 CALM      30.27R
KREMMLING      FAIR      37  34  87 CALM      30.32S
LEADVILLE      MOCLDY    26  21  81 N8        30.30S WCI  18
MONARCH PASS   FAIR      21  18  86 NW8       30.43S WCI  12
SALIDA         FAIR      36  34  92 CALM      30.35S
SUNLIGHT       FAIR      23  21  93 NE5       30.39F WCI  17
WILKERSON PASS MOCLDY    21  19  93 N7        30.33S WCI  13
$$

COZ069>075-231200-
...SAN LUIS VALLEY/SANGRE DE CRISTO MOUNTAINS...

CITY           SKY/WX    TMP DP  RH WIND       PRES   REMARKS
ALAMOSA        CLOUDY    35  33  92 E12       30.22R WCI  27
DEL NORTE      FAIR      33  31  90 CALM      30.24R
LA VETA PASS   SNOW      27  23  86 MISG      30.39S VSB 1/4
SAGUACHE       FAIR      34  32  93 W6        30.24F WCI  29
$$

COZ035-036-038>040-231200-
...NORTHERN COLORADO FRONT RANGE...

CITY           SKY/WX    TMP DP  RH WIND       PRES   REMARKS
DENVER INTL AP MOCLDY    42  35  76 W9        30.21F
DMNS CITY PARK   N/A     40  38  93 NE5       30.23S
AURORA         MOCLDY    38  36  92 W6        30.23F
FRONT RANGE AP FAIR      39  36  87 W14       30.22F
ERIE MUNI ARPT CLOUDY    40  38  94 CALM      30.22F
BOULDER MUN AP CLOUDY    43  34  70 SW5       30.22F
CENTENNIAL     FAIR      37  35  92 W8        30.23F
BROOMFIELD     CLOUDY    43  34  70 W5        30.23F
FORT COLLINS   FAIR      44  36  73 N3        30.22F
LONGMONT       CLOUDY    42  37  83 CALM      30.24F
$$

COZ041-046-047-076>085-087-088-231200-
...PIKES PEAK/PALMER DIVIDE AND SOUTHERN FOOTHILLS...

CITY           SKY/WX    TMP DP  RH WIND       PRES   REMARKS
COLO. SPRINGS  FAIR      41  32  70 NW7       30.24F
A. F. ACADEMY  FAIR      37  31  79 N7        30.23S
SCHRIEVER AFB  FAIR      38  32  79 NW12      30.23F
CHEYENNE MTN   FAIR      39  26  60 NW8       30.18F
ELLICOTT       FAIR     N/A N/A N/A N6        30.21F
FALCON         FAIR      35  32  89 W8        30.24S WCI  28
FORT CARSON    FAIR      38  30  70 NW6       30.22F
LIMON          FAIR      38  35  89 N14       30.18F
MONUMENT HILL  FAIR      32  32 100 NW9       30.25S WCI  24
CANON CITY     NOT AVBL
WALSENBURG     CLOUDY    39  37  93 SW8       30.24S
TRINIDAD       CLOUDY    41  37  86 W9        30.23F
$$

COZ042>045-048>051-090-091-231200-
...NORTHEAST COLORADO...

CITY           SKY/WX    TMP DP  RH WIND       PRES   REMARKS
GREELEY ARPT   CLOUDY    46  36  68 NW13      30.21F
AKRON          FAIR      35  32  88 W10       30.17S WCI  27
BURLINGTON     FAIR      39  37  92 NW9       30.14F
WRAY           FAIR      41  37  87 NW10      30.14S
YUMA           FAIR      36  34  93 W10       30.15F
STERLING       FAIR      39  36  87 NW10      30.15F
HOLYOKE        NOT AVBL
FORT MORGAN    FAIR      42  34  73 MISG      30.19S
$$

COZ086-089-092>099-231200-
...SOUTHEAST COLORADO...

CITY           SKY/WX    TMP DP  RH WIND       PRES   REMARKS
PUEBLO         FAIR      45  39  79 N5        30.21F
LA JUNTA       FAIR      44  39  82 NW5       30.20F
LAMAR          FAIR      42  37  82 W8        30.16F
SPRINGFIELD      N/A     42  39  89 NW13      30.16S
$$




USA.gov is the U.S. government's official web portal to all federal, state and local government web resources and services.